星链-30990 (STARLINK-30990 )

导读 | 星芒AI

STARLINK-30990 是 SpaceX Starlink 卫星互联网项目中的第 30990 颗卫星,属于低轨卫星群的一部分,旨在为全球用户提供高速互联网服务。该卫星采用可重复使用设计,配备先进通信设备,支持宽带数据传输。其发射进一步扩展了 Starlink 网络的覆盖范围与稳定性,提升偏远地区网络接入能力。该卫星运行于约 550 公里高度轨道,遵循 SpaceX 的可持续太空发展策略。

基本信息
目录编号:
58478
目录名称:
STARLINK-30990
国际标识:
2023-186F
轨道中心:
EARTH
卫星名称:
星链-30990
卫星全名:
星链-30990 (STARLINK-30990 )
卫星状态:
在轨 (已飞行747 天)
发射日期:
2023-12-03 UTC
国别 :
美国 (US)
星等 :
--
轨道信息
数据来源 国际轨道数据 AOE轨道数据
星历时间 2025-12-19T11:27:13+0800
16小时前
查看轨道信息
2025-12-14T08:00:00+0800
5天前
查看轨道信息
半长轴 6937.223km 6937.24km
偏心率 0.0001226 0.0001113
轨道倾角 43.002° 43.004°
近地点辐角 266.335° 256.551°
升交点赤经 145.257° 173.210°
平近点角 93.736° 327.609°
近地点 558.235km 558.332km
远地点 559.937km 559.878km
周期 95.838分钟 95.838分钟
每日圈数 15.02534 15.025285
详细信息
固有亮度:
5
最大亮度:
0.3
卫星平台:
Starlink v2.0 mini
覆盖范围:
全球
运营商:
太空探索技术公司
运营商所在国:
美国
制造商(研发单位):
太空探索技术公司
制造商所在国:
美国
使用方式:
暂无
卫星简介
星链(Starlink)计划是由太空探索技术公司(SpaceX)提出的一个巨型低轨卫星互联网星座项目,计划在2019年至2024年间在太空搭建由约1.2万颗卫星组成的“星链”网络,其中1584颗将部署在地球上空550千米处的近地轨道,并从2020年开始工作。该卫星仍在工作。
2D轨道图
3D轨道图
轨道高度分析图
轨道倾角分析图
轨道综合分析图
查看轨道综合分析图